KK7MLS-13 Weather Reports


time (UTC)temp
C
wind
direction
speed
KPH
gust
KPH
rain 1hr
cm
rain 24hr
cm
rain mn
cm
humidity
%
barometer
mb
20260507110213 11 194 0.0 0.0 0.00 0.00 0.00 75 1021.0
20260507105711 11 186 0.0 0.0 0.00 0.00 0.00 75 1021.1
20260507105206 11 148 0.0 0.0 0.00 0.00 0.00 75 1021.3
20260507104704 11 147 0.0 0.0 0.00 0.00 0.00 75 1021.3
20260507104200 11 237 0.0 0.0 0.00 0.00 0.00 75 1021.2
20260507103656 11 237 0.0 0.0 0.00 0.00 0.00 75 1021.2
20260507103153 11 219 0.0 0.0 0.00 0.00 0.00 75 1021.2
20260507102649 11 231 0.0 0.0 0.00 0.00 0.00 75 1021.3
20260507102146 11 195 0.0 0.0 0.00 0.00 0.00 76 1021.2
20260507101641 11 195 0.0 0.0 0.00 0.00 0.00 76 1021.4
20260507101137 12 195 0.0 0.0 0.00 0.00 0.00 76 1021.2
20260507100635 12 195 0.0 0.0 0.00 0.00 0.00 75 1021.5
20260507100133 12 232 0.0 0.0 0.00 0.00 0.00 77 1021.5
20260507095631 12 232 0.0 0.0 0.00 0.00 0.00 76 1021.4
20260507095127 12 236 0.0 0.0 0.00 0.00 0.00 77 1021.5
20260507094624 12 197 0.0 0.0 0.00 0.00 0.00 78 1021.5
20260507094121 12 197 0.0 0.0 0.00 0.00 0.00 78 1021.4
20260507093618 12 197 0.0 0.0 0.00 0.00 0.00 78 1021.4
20260507093117 12 196 0.0 0.0 0.00 0.00 0.00 78 1021.7
20260507092612 12 196 0.0 0.0 0.00 0.00 0.00 78 1021.6
20260507092109 12 185 0.0 0.0 0.00 0.00 0.00 78 1021.8
20260507091606 12 186 0.0 0.0 0.00 0.00 0.00 78 1021.7
20260507091102 12 212 0.0 0.0 0.00 0.00 0.00 78 1021.9
20260507090558 12 212 0.0 1.6 0.00 0.00 0.00 78 1021.8
20260507090055 12 195 0.0 0.0 0.00 0.00 0.00 78 1021.9
20260507085552 12 179 0.0 0.0 0.00 0.00 0.00 79 1021.8
20260507085049 12 179 0.0 0.0 0.00 0.00 0.00 79 1021.8
20260507084545 12 211 0.0 0.0 0.00 0.00 0.00 78 1021.7
20260507084043 12 210 0.0 1.6 0.00 0.00 0.00 78 1021.8
20260507083539 12 223 0.0 0.0 0.00 0.00 0.00 78 1021.8
20260507083036 12 223 0.0 0.0 0.00 0.00 0.00 78 1021.8
20260507082532 12 222 0.0 0.0 0.00 0.00 0.00 78 1021.8
20260507082028 12 217 0.0 0.0 0.00 0.00 0.00 78 1021.8
20260507081525 12 218 0.0 0.0 0.00 0.00 0.00 78 1021.9
20260507081022 12 190 0.0 0.0 0.00 0.00 0.00 78 1021.8
20260507080517 12 199 0.0 0.0 0.00 0.00 0.00 78 1021.8
20260507080014 12 199 0.0 0.0 0.00 0.00 0.00 78 1021.8
20260507075509 12 199 0.0 1.6 0.00 0.00 0.00 78 1021.9
20260507075006 12 220 0.0 0.0 0.00 0.00 0.00 77 1022.0
20260507074503 12 236 1.6 3.2 0.00 0.00 0.00 77 1021.9
20260507074001 12 197 0.0 0.0 0.00 0.00 0.00 77 1021.9
20260507073457 12 197 0.0 0.0 0.00 0.00 0.00 76 1021.8
20260507072954 12 141 0.0 0.0 0.00 0.00 0.00 76 1021.8
20260507072452 12 184 0.0 0.0 0.00 0.00 0.00 76 1021.8
20260507071949 12 183 0.0 0.0 0.00 0.00 0.00 77 1021.8
20260507071445 12 183 0.0 0.0 0.00 0.00 0.00 77 1021.6
20260507070942 12 200 0.0 1.6 0.00 0.00 0.00 77 1021.7
20260507070440 12 346 0.0 0.0 0.00 0.00 0.00 77 1021.5
20260507065936 12 308 0.0 0.0 0.00 0.00 0.00 77 1021.5
20260507065433 12 278 0.0 0.0 0.00 0.00 0.00 77 1021.7
20260507064930 12 250 0.0 0.0 0.00 0.00 0.00 77 1021.5
20260507064428 12 252 0.0 1.6 0.00 0.00 0.00 77 1021.7
20260507063926 12 237 0.0 0.0 0.00 0.00 0.00 78 1021.7
20260507063423 12 153 0.0 1.6 0.00 0.00 0.00 78 1021.7
20260507062920 12 227 0.0 0.0 0.00 0.00 0.00 78 1021.7
20260507062417 12 73 0.0 1.6 0.00 0.00 0.00 77 1021.6
20260507061914 12 260 0.0 0.0 0.00 0.00 0.00 79 1021.7
20260507061412 12 248 0.0 0.0 0.00 0.00 0.00 78 1021.8
20260507060910 12 153 0.0 0.0 0.00 0.00 0.00 79 1021.6
20260507060406 12 240 0.0 0.0 0.00 0.00 0.00 79 1021.6
20260507055903 12 264 0.0 1.6 0.00 0.00 0.00 78 1021.7
20260507055358 12 30 0.0 0.0 0.00 0.00 0.00 79 1021.8
20260507054856 12 40 0.0 0.0 0.00 0.00 0.00 79 1021.5
20260507054352 12 218 0.0 0.0 0.00 0.00 0.00 79 1021.6
20260507053849 12 218 0.0 0.0 0.00 0.00 0.00 79 1021.6
20260507053347 12 193 0.0 0.0 0.00 0.00 0.00 78 1021.7
20260507052845 13 182 0.0 0.0 0.00 0.00 0.00 78 1021.3
20260507052342 13 235 0.0 1.6 0.00 0.00 0.00 78 1021.7
20260507051839 13 221 0.0 0.0 0.00 0.00 0.00 78 1021.4
20260507051337 13 221 0.0 0.0 0.00 0.00 0.00 77 1021.6
20260507050833 13 253 0.0 1.6 0.00 0.00 0.00 77 1021.6
20260507050330 13 244 0.0 0.0 0.00 0.00 0.00 77 1021.5
20260507045827 13 251 0.0 0.0 0.00 0.00 0.00 77 1021.7
20260507045323 13 214 0.0 0.0 0.00 0.00 0.00 76 1021.8
20260507044821 13 273 0.0 0.0 0.00 0.00 0.00 76 1021.6
20260507044317 13 79 0.0 1.6 0.00 0.00 0.00 76 1021.6
20260507043813 13 297 1.6 3.2 0.00 0.00 0.00 76 1021.4
20260507043310 13 219 0.0 3.2 0.00 0.00 0.00 76 1021.3
20260507042806 13 264 0.0 1.6 0.00 0.00 0.00 76 1021.4
20260507042302 13 281 0.0 0.0 0.00 0.00 0.00 76 1021.4
20260507041759 13 287 0.0 0.0 0.00 0.00 0.00 76 1021.5
20260507041255 14 250 0.0 0.0 0.00 0.00 0.00 75 1021.4
20260507040753 14 255 0.0 3.2 0.00 0.00 0.00 75 1021.3
20260507040249 14 247 0.0 0.0 0.00 0.00 0.00 75 1021.2
20260507035745 14 261 1.6 3.2 0.00 0.00 0.00 75 1021.0
20260507035240 14 263 1.6 1.6 0.00 0.00 0.00 74 1021.0
20260507034738 14 270 0.0 0.0 0.00 0.00 0.00 75 1020.9
20260507034235 15 96 0.0 1.6 0.00 0.00 0.00 75 1020.9
20260507033733 15 228 0.0 1.6 0.00 0.00 0.00 75 1020.8
20260507033230 15 28 0.0 1.6 0.00 0.00 0.00 74 1020.9
20260507032728 15 275 0.0 3.2 0.00 0.00 0.00 74 1020.7
20260507032223 15 230 0.0 1.6 0.00 0.00 0.00 74 1020.7
20260507031720 15 251 0.0 1.6 0.00 0.00 0.00 74 1020.6
20260507031217 15 249 0.0 1.6 0.00 0.00 0.00 73 1020.5
20260507030714 15 201 0.0 0.0 0.00 0.00 0.00 73 1020.6
20260507030212 15 305 0.0 3.2 0.00 0.00 0.00 73 1020.4
20260507025708 16 231 0.0 4.8 0.00 0.00 0.00 72 1020.3
20260507025205 16 291 0.0 0.0 0.00 0.00 0.00 73 1020.5
20260507024704 16 279 0.0 0.0 0.00 0.00 0.00 72 1020.4
20260507024200 16 304 0.0 0.0 0.00 0.00 0.00 72 1020.2
20260507023656 16 260 0.0 0.0 0.00 0.00 0.00 72 1020.2
20260507023153 16 261 0.0 0.0 0.00 0.00 0.00 71 1020.1
20260507022650 16 86 0.0 1.6 0.00 0.00 0.00 71 1020.3
20260507022140 16 328 0.0 1.6 0.00 0.00 0.00 70 1020.1
20260507021637 16 358 0.0 0.0 0.00 0.00 0.00 69 1020.1
20260507021132 17 259 1.6 1.6 0.00 0.00 0.00 69 1020.0
20260507020631 17 269 0.0 3.2 0.00 0.00 0.00 67 1020.0
20260507020127 18 204 0.0 1.6 0.00 0.00 0.00 65 1020.1
20260507015626 18 89 1.6 1.6 0.00 0.00 0.00 65 1020.2
20260507015122 18 293 1.6 3.2 0.00 0.00 0.00 64 1020.2
20260507014619 18 319 0.0 1.6 0.00 0.00 0.00 64 1020.3
20260507014115 18 279 0.0 0.0 0.00 0.00 0.00 64 1020.4
20260507013612 18 285 1.6 1.6 0.00 0.00 0.00 65 1020.3
20260507013109 19 112 0.0 1.6 0.00 0.00 0.00 63 1020.2
20260507012606 20 290 0.0 4.8 0.00 0.00 0.00 60 1020.2
20260507012101 21 310 0.0 0.0 0.00 0.00 0.00 60 1020.2
20260507011600 20 265 0.0 1.6 0.00 0.00 0.00 61 1020.2
20260507011055 19 64 0.0 4.8 0.00 0.00 0.00 66 1020.0
20260507010551 18 314 0.0 3.2 0.00 0.00 0.00 66 1020.1
20260507010047 18 276 1.6 1.6 0.00 0.00 0.00 66 1020.2
20260507005545 18 284 0.0 1.6 0.00 0.00 0.00 66 1020.2
20260507005040 19 289 0.0 1.6 0.00 0.00 0.00 66 1020.2
20260507004537 19 19 0.0 0.0 0.00 0.00 0.00 66 1020.0
20260507004035 19 306 0.0 1.6 0.00 0.00 0.00 66 1020.1
20260507003530 19 313 1.6 1.6 0.00 0.00 0.00 67 1020.2
20260507003025 19 300 0.0 1.6 0.00 0.00 0.00 68 1020.0
20260507002522 20 358 0.0 0.0 0.00 0.00 0.00 65 1020.0
20260507002018 20 57 0.0 1.6 0.00 0.00 0.00 63 1020.0
20260507001515 21 265 1.6 1.6 0.00 0.00 0.00 61 1020.0
20260507001013 21 251 0.0 1.6 0.00 0.00 0.00 61 1020.1
20260507000508 21 279 0.0 1.6 0.00 0.00 0.00 61 1020.0
20260507000004 20 306 0.0 0.0 0.00 0.00 0.00 64 1020.0
20260506235502 21 249 0.0 1.6 0.00 0.00 0.00 62 1020.0
20260506234957 21 235 0.0 3.2 0.00 0.00 0.00 60 1020.0
20260506234455 21 266 0.0 0.0 0.00 0.00 0.00 61 1020.0
20260506233952 22 152 0.0 0.0 0.00 0.00 0.00 59 1020.2
20260506233449 22 301 0.0 0.0 0.00 0.00 0.00 58 1020.0
20260506232945 22 228 0.0 1.6 0.00 0.00 0.00 59 1020.1
20260506232441 22 298 0.0 0.0 0.00 0.00 0.00 58 1020.1
20260506231937 21 279 1.6 1.6 0.00 0.00 0.00 58 1020.1
20260506231435 21 273 0.0 1.6 0.00 0.00 0.00 57 1020.3
20260506230932 21 240 0.0 0.0 0.00 0.00 0.00 62 1019.9
20260506230428 21 185 0.0 0.0 0.00 0.00 0.00 61 1020.2
20260506225925 21 270 0.0 0.0 0.00 0.00 0.00 62 1020.3
20260506225422 21 279 0.0 1.6 0.00 0.00 0.00 59 1020.3
20260506224919 21 212 1.6 1.6 0.00 0.00 0.00 59 1020.5
20260506224417 21 284 0.0 0.0 0.00 0.00 0.00 61 1020.5
20260506223913 21 32 0.0 1.6 0.00 0.00 0.00 60 1020.5
20260506223408 20 282 0.0 0.0 0.00 0.00 0.00 62 1020.6
20260506222905 20 192 0.0 1.6 0.00 0.00 0.00 62 1020.7
20260506222401 20 263 4.8 4.8 0.00 0.00 0.00 60 1020.6
20260506221859 21 182 0.0 1.6 0.00 0.00 0.00 62 1020.8
20260506221356 21 223 0.0 1.6 0.00 0.00 0.00 61 1020.7
20260506220854 21 12 0.0 0.0 0.00 0.00 0.00 62 1020.8
20260506220349 21 252 0.0 1.6 0.00 0.00 0.00 60 1020.7
20260506215846 20 87 0.0 0.0 0.00 0.00 0.00 62 1020.7
20260506215342 20 242 0.0 1.6 0.00 0.00 0.00 61 1020.7
20260506214838 21 183 0.0 1.6 0.00 0.00 0.00 59 1020.5
20260506214335 21 292 1.6 1.6 0.00 0.00 0.00 59 1020.6
20260506213833 20 266 0.0 1.6 0.00 0.00 0.00 63 1020.6
20260506213330 19 267 1.6 1.6 0.00 0.00 0.00 65 1020.6
20260506212827 20 209 0.0 3.2 0.00 0.00 0.00 64 1021.0
20260506212323 20 287 1.6 4.8 0.00 0.00 0.00 62 1020.8
20260506211818 20 202 0.0 1.6 0.00 0.00 0.00 67 1021.0
20260506211314 19 154 1.6 1.6 0.00 0.00 0.00 66 1020.9
20260506210812 19 161 1.6 1.6 0.00 0.00 0.00 66 1021.2
20260506210309 19 169 0.0 1.6 0.00 0.00 0.00 66 1021.2
20260506205806 19 162 0.0 1.6 0.00 0.00 0.00 65 1020.9
20260506205305 20 275 1.6 1.6 0.00 0.00 0.00 65 1021.0
20260506204758 20 259 0.0 0.0 0.00 0.00 0.00 67 1021.1
20260506204256 20 292 0.0 1.6 0.00 0.00 0.00 65 1021.0
20260506203754 18 72 0.0 1.6 0.00 0.00 0.00 69 1020.9
20260506203251 18 91 0.0 0.0 0.00 0.00 0.00 70 1021.0
20260506202748 18 278 0.0 1.6 0.00 0.00 0.00 70 1021.0
20260506202244 17 279 0.0 0.0 0.00 0.00 0.00 72 1021.0
20260506201741 18 293 1.6 1.6 0.00 0.00 0.00 69 1021.0
20260506201238 18 207 1.6 3.2 0.00 0.00 0.00 69 1021.3
20260506200735 18 269 0.0 1.6 0.00 0.00 0.00 69 1021.2
20260506200231 18 240 0.0 3.2 0.00 0.00 0.00 68 1021.1
20260506195728 18 288 0.0 1.6 0.00 0.00 0.00 70 1021.1
20260506195224 17 67 0.0 1.6 0.00 0.00 0.00 71 1021.4
20260506194722 17 3 0.0 1.6 0.00 0.00 0.00 71 1021.4
20260506194218 17 20 0.0 0.0 0.00 0.00 0.00 73 1021.6
20260506193716 17 228 0.0 1.6 0.00 0.00 0.00 72 1021.5
20260506193212 17 354 0.0 1.6 0.00 0.00 0.00 71 1021.4
20260506192709 17 297 0.0 0.0 0.00 0.00 0.00 71 1021.4
20260506192206 17 303 0.0 1.6 0.00 0.00 0.00 71 1021.5
20260506191657 18 256 0.0 3.2 0.00 0.00 0.00 70 1021.3
20260506191153 17 174 0.0 1.6 0.00 0.00 0.00 70 1021.3
20260506190650 17 87 0.0 0.0 0.00 0.00 0.00 73 1021.2
20260506190147 17 280 1.6 3.2 0.00 0.00 0.00 72 1021.4
20260506185644 17 156 1.6 1.6 0.00 0.00 0.00 73 1021.3
20260506185140 17 267 3.2 3.2 0.00 0.00 0.00 71 1021.4
20260506184638 17 21 1.6 3.2 0.00 0.00 0.00 72 1021.3
20260506184135 17 204 0.0 1.6 0.00 0.00 0.00 73 1021.2
20260506183631 17 278 1.6 4.8 0.00 0.00 0.00 71 1021.1
20260506183127 17 12 0.0 1.6 0.00 0.00 0.00 73 1021.2
20260506182625 16 324 0.0 0.0 0.00 0.00 0.00 73 1021.3
20260506182122 16 236 0.0 3.2 0.00 0.00 0.00 74 1021.5
20260506181620 16 342 0.0 1.6 0.00 0.00 0.00 75 1021.3
20260506181117 16 221 0.0 3.2 0.00 0.00 0.00 74 1021.2
20260506180613 16 244 1.6 3.2 0.00 0.00 0.00 74 1021.3
20260506180110 15 185 0.0 0.0 0.00 0.00 0.00 78 1021.3
20260506175606 15 155 0.0 1.6 0.00 0.00 0.00 78 1021.3
20260506175102 15 274 1.6 3.2 0.00 0.00 0.00 77 1021.2
20260506174601 15 261 1.6 1.6 0.00 0.00 0.00 78 1021.4
20260506174057 15 299 0.0 1.6 0.00 0.00 0.00 78 1021.3
20260506173555 15 12 0.0 0.0 0.00 0.00 0.00 80 1021.3
20260506173052 15 67 0.0 1.6 0.00 0.00 0.00 79 1021.0
20260506172549 15 148 0.0 0.0 0.00 0.00 0.00 80 1021.1
20260506172045 15 131 0.0 0.0 0.00 0.00 0.00 81 1020.8
20260506171543 15 7 0.0 1.6 0.00 0.00 0.00 81 1021.1
20260506171040 14 243 0.0 1.6 0.00 0.00 0.00 83 1021.1
20260506170538 14 258 0.0 0.0 0.00 0.00 0.00 82 1021.1
20260506170035 14 259 0.0 0.0 0.00 0.00 0.00 82 1021.0
20260506165533 14 233 1.6 1.6 0.00 0.00 0.00 82 1021.2
20260506165029 14 273 0.0 1.6 0.00 0.00 0.00 82 1021.1
20260506164526 14 79 0.0 0.0 0.00 0.00 0.00 82 1021.0
20260506164018 14 151 1.6 3.2 0.00 0.00 0.00 83 1021.0
20260506163514 13 325 0.0 0.0 0.00 0.00 0.00 83 1021.0
20260506163009 13 280 0.0 0.0 0.00 0.00 0.00 83 1021.2
20260506162506 13 269 1.6 1.6 0.00 0.00 0.00 83 1020.9
20260506162003 13 276 0.0 0.0 0.00 0.00 0.00 83 1021.0
20260506161500 13 331 0.0 0.0 0.00 0.00 0.00 83 1020.8
20260506160958 13 5 0.0 0.0 0.00 0.00 0.00 83 1020.9
20260506160455 13 119 0.0 1.6 0.00 0.00 0.00 83 1021.0
20260506155952 13 190 0.0 1.6 0.00 0.00 0.00 83 1020.6
20260506155450 13 9 0.0 0.0 0.00 0.00 0.00 83 1020.6
20260506153617 13 90 0.0 0.0 0.00 0.00 0.00 85 1020.2
20260506153114 13 264 1.6 1.6 0.00 0.00 0.00 84 1020.6
20260506152611 13 280 0.0 0.0 0.00 0.00 0.00 85 1020.8
20260506152109 13 15 0.0 0.0 0.00 0.00 0.00 84 1020.8
20260506151607 13 326 0.0 0.0 0.00 0.00 0.00 85 1021.0
20260506151104 13 326 0.0 0.0 0.00 0.00 0.00 84 1021.1
20260506150600 13 241 0.0 0.0 0.00 0.00 0.00 84 1021.0
20260506150057 13 295 0.0 0.0 0.00 0.00 0.00 84 1021.0
20260506145554 13 293 0.0 0.0 0.00 0.00 0.00 85 1021.1
20260506145051 13 253 0.0 0.0 0.00 0.00 0.00 84 1021.1
20260506144548 13 227 0.0 0.0 0.00 0.00 0.00 84 1020.6
20260506144045 13 235 0.0 0.0 0.00 0.00 0.00 84 1020.8
20260506143543 13 235 0.0 0.0 0.00 0.00 0.00 83 1020.8
20260506143041 13 62 0.0 1.6 0.00 0.00 0.00 83 1020.6
20260506142538 13 224 0.0 0.0 0.00 0.00 0.00 84 1020.5
20260506142037 13 16 0.0 0.0 0.00 0.00 0.00 84 1020.4
20260506141534 13 58 0.0 0.0 0.00 0.00 0.00 84 1020.1
20260506141032 13 31 0.0 1.6 0.00 0.00 0.00 84 1020.2
20260506140529 13 266 0.0 0.0 0.00 0.00 0.00 85 1020.2
20260506140027 13 118 0.0 1.6 0.00 0.00 0.00 85 1020.0
20260506135523 13 250 0.0 0.0 0.00 0.00 0.00 85 1020.2
20260506135019 13 295 0.0 0.0 0.00 0.00 0.00 86 1020.2
20260506134516 13 330 0.0 0.0 0.00 0.00 0.00 86 1020.1
20260506134012 13 252 0.0 0.0 0.00 0.00 0.00 86 1020.0
20260506133510 13 254 0.0 0.0 0.00 0.00 0.00 85 1019.9
20260506133006 13 282 0.0 0.0 0.00 0.00 0.00 86 1019.9
20260506132503 13 291 0.0 0.0 0.00 0.00 0.00 85 1019.9
20260506132001 13 202 0.0 0.0 0.00 0.00 0.00 85 1019.8
20260506131457 13 221 0.0 1.6 0.00 0.00 0.00 85 1019.7
20260506130953 13 268 0.0 0.0 0.00 0.00 0.00 85 1019.7
20260506130450 13 267 0.0 0.0 0.00 0.00 0.00 85 1019.7
20260506125948 13 188 0.0 0.0 0.00 0.00 0.00 85 1019.7
20260506125446 13 119 0.0 0.0 0.00 0.00 0.00 85 1019.9
20260506124944 13 119 0.0 0.0 0.00 0.00 0.00 84 1019.6
20260506124441 13 84 0.0 0.0 0.00 0.00 0.00 84 1019.5
20260506123939 13 205 0.0 0.0 0.00 0.00 0.00 84 1019.5
20260506123437 13 109 0.0 0.0 0.00 0.00 0.00 84 1019.5
20260506122934 13 60 0.0 0.0 0.00 0.00 0.00 84 1019.6
20260506122431 13 60 0.0 0.0 0.00 0.00 0.00 85 1019.6
20260506121929 13 60 0.0 0.0 0.00 0.00 0.00 84 1019.6
20260506121426 13 60 0.0 0.0 0.00 0.00 0.00 84 1019.5
20260506120923 13 60 0.0 0.0 0.00 0.00 0.00 85 1019.6
20260506120420 13 60 0.0 0.0 0.00 0.00 0.00 84 1019.5
20260506115917 13 60 0.0 0.0 0.00 0.00 0.00 84 1019.6
20260506115415 13 60 0.0 0.0 0.00 0.00 0.00 84 1019.5
20260506114913 13 60 0.0 0.0 0.00 0.00 0.00 84 1019.4
20260506114410 13 60 0.0 0.0 0.00 0.00 0.00 84 1019.2
20260506113909 13 60 0.0 0.0 0.00 0.00 0.00 84 1019.2
20260506113406 13 60 0.0 0.0 0.00 0.00 0.00 84 1019.1
20260506112903 13 60 0.0 0.0 0.00 0.00 0.00 84 1019.1
20260506112400 13 60 0.0 0.0 0.00 0.00 0.00 84 1019.1
20260506111857 13 60 0.0 0.0 0.00 0.00 0.00 84 1019.1
20260506111356 13 60 0.0 0.0 0.00 0.00 0.00 84 1018.9
20260506110853 13 60 0.0 0.0 0.00 0.00 0.00 84 1018.9
20260506110350 13 60 0.0 0.0 0.00 0.00 0.00 84 1019.1